Date String (YYYY-MM-DD hh:mm:ss) UTC,Instrument flags,absolute air pressure of the measurement (hPa),sample flow rate (lpm),inlet stack bypass flow (lpm),air temperature of the measurement (°C),ambient temperature measured by the external sensor (°C),aerosol sample conditioner tube jacket temperature (°C),OPC LED temperature (°C),internal box temperature (°C),relative humidity of the measurement (%),span deviation,mass concentration of particles derived from Lorenz-Mie calculation of OPC scattering (μg/m³),mass concentration of particles derived from Lorenz-Mie calculation of OPC scattering (μg/m³),mass concentration of particles derived from Lorenz-Mie calculation of OPC scattering (μg/m³)
DateTimeUTC,F1_M11,P_M11,Q1_M11,Q2_M11,T1_M11,T2_M11,T3_M11,T4_M11,T5_M11,U1_M11,ZSPAN_M11,X0_M11,X2_M11,X1_M11
2023-10-10 15:00:00,SystemResetWarning,0824.4,5.00,000.00,029.3,028.0,000.0,037.7,030.9,8.7,0000.0,0004.75,0003.13,0002.59
2023-10-10 15:01:00,SystemResetWarning,0824.4,5.00,000.00,029.3,028.0,000.0,037.7,030.9,8.8,0000.0,0004.73,0003.11,0002.57
2023-10-10 15:02:00,SystemResetWarning,0824.3,5.00,000.00,029.3,028.1,000.0,037.7,030.9,8.6,0000.0,0004.67,0003.10,0002.54
2023-10-10 15:03:00,SystemResetWarning,0824.3,5.00,000.00,029.3,028.1,000.0,037.7,030.9,8.8,0000.0,0004.91,0003.08,0002.54
2023-10-10 15:04:00,SystemResetWarning,0824.4,5.00,000.00,029.4,028.1,000.0,037.7,030.9,8.7,0000.0,0004.93,0003.05,0002.53
2023-10-10 15:05:00,SystemResetWarning,0824.4,5.00,000.00,029.4,028.1,000.0,037.7,031.0,8.6,0000.0,0005.06,0003.01,0002.51
2023-10-10 15:06:00,SystemResetWarning,0824.4,4.99,000.00,029.4,028.1,000.0,037.8,031.0,8.6,0000.0,0005.00,0002.97,0002.49
2023-10-10 15:07:00,SystemResetWarning,0824.4,5.00,000.00,029.4,028.2,000.0,037.8,031.0,8.9,0000.0,0005.72,0003.00,0002.49
2023-10-10 15:08:00,SystemResetWarning,0824.4,5.01,000.00,029.4,028.2,000.0,037.8,031.0,8.9,0000.0,0006.89,0003.01,0002.47
2023-10-10 15:09:00,SystemResetWarning,0824.4,5.00,000.00,029.4,028.2,000.0,037.8,031.0,9.0,0000.0,0006.98,0002.98,0002.45
2023-10-10 15:10:00,SystemResetWarning,0824.3,5.01,000.00,029.4,028.2,000.0,037.8,031.1,9.0,0000.0,0006.94,0002.95,0002.41
2023-10-10 15:11:00,SystemResetWarning,0824.4,5.00,000.00,029.5,028.2,000.0,037.8,031.1,9.6,0000.0,0006.86,0002.93,0002.39
2023-10-10 15:12:00,SystemResetWarning,0824.4,5.00,000.00,029.5,028.3,000.0,037.8,031.1,11.5,0000.0,0006.99,0002.90,0002.37
2023-10-10 15:13:00,SystemResetWarning,0824.4,4.99,000.00,029.5,028.2,000.0,037.8,031.2,11.3,0000.0,0007.73,0002.91,0002.41
2023-10-10 15:14:00,SystemResetWarning,0824.3,4.99,000.00,029.5,027.0,000.0,037.8,031.1,11.3,0000.0,0007.83,0002.98,0002.45
2023-10-10 15:15:00,SystemResetWarning,0824.3,5.00,000.00,029.4,025.2,000.0,037.7,030.9,11.1,0000.0,0007.71,0002.98,0002.47
2023-10-10 15:16:00,SystemResetWarning,0824.3,5.02,000.00,029.3,024.8,000.0,037.7,030.7,11.3,0000.0,0007.75,0003.05,0002.50
2023-10-10 15:17:00,SystemResetWarning,0824.3,5.00,000.00,029.2,025.1,000.0,037.6,030.5,11.4,0000.0,0007.92,0003.11,0002.52
2023-10-10 15:18:00,SystemResetWarning,0824.2,4.99,000.00,029.1,025.5,000.0,037.6,030.4,11.2,0000.0,0008.04,0003.11,0002.53
2023-10-10 15:19:00,SystemResetWarning,0824.2,5.00,000.00,029.0,025.8,000.0,037.6,030.4,10.7,0000.0,0008.66,0003.14,0002.56
2023-10-10 15:20:00,SystemResetWarning,0824.2,5.00,000.00,029.0,026.2,000.0,037.6,030.5,10.4,0000.0,0009.94,0003.18,0002.59
2023-10-10 15:21:00,SystemResetWarning,0824.3,5.00,000.00,029.0,026.5,000.0,037.6,030.5,11.1,0000.0,0010.35,0003.22,0002.62
2023-10-10 15:22:00,SystemResetWarning,0824.3,5.01,000.00,029.0,026.8,000.0,037.6,030.5,11.0,0000.0,0010.68,0003.27,0002.65
2023-10-10 15:23:00,SystemResetWarning,0824.3,5.00,000.00,029.0,027.0,000.0,037.6,030.6,10.2,0000.0,0011.00,0003.30,0002.68
2023-10-10 15:24:00,SystemResetWarning,0824.3,4.99,000.00,029.0,027.2,000.0,037.6,030.6,10.2,0000.0,0010.47,0003.32,0002.65
2023-10-10 15:25:00,SystemResetWarning,0824.2,5.00,000.00,029.0,027.3,000.0,037.6,030.6,10.8,0000.0,0010.56,0003.32,0002.61
2023-10-10 15:26:00,SystemResetWarning,0824.3,5.00,000.00,029.0,027.5,000.0,037.6,030.7,11.2,0000.0,0011.05,0003.30,0002.56
2023-10-10 15:27:00,SystemResetWarning,0824.3,5.00,000.00,029.0,027.6,000.0,037.6,030.7,10.9,0000.0,0011.32,0003.28,0002.51
2023-10-10 15:28:00,SystemResetWarning,0824.3,5.00,000.00,029.1,027.7,000.0,037.6,030.7,11.0,0000.0,0011.16,0003.24,0002.48
2023-10-10 15:29:00,SystemResetWarning,0824.3,5.01,000.00,029.1,027.8,000.0,037.6,030.8,11.1,0000.0,0010.77,0003.23,0002.45
2023-10-10 15:30:00,SystemResetWarning,0824.3,5.01,000.00,029.1,027.9,000.0,037.6,030.8,11.4,0000.0,0010.07,0003.17,0002.41
2023-10-10 15:31:00,SystemResetWarning,0824.2,5.00,000.00,029.2,027.9,000.0,037.6,030.8,12.0,0000.0,0009.10,0003.11,0002.36
2023-10-10 15:32:00,SystemResetWarning,0824.2,5.00,000.00,029.2,028.0,000.0,037.6,030.9,12.8,0000.0,0008.72,0003.04,0002.33
2023-10-10 15:33:00,SystemResetWarning,0824.1,5.00,000.00,029.2,028.1,000.0,037.6,030.9,12.9,0000.0,0008.51,0002.95,0002.30
2023-10-10 15:34:00,SystemResetWarning,0824.1,5.00,000.00,029.2,028.1,000.0,037.6,030.9,12.4,0000.0,0008.07,0002.84,0002.26
2023-10-10 15:35:00,SystemResetWarning,0824.1,5.00,000.00,029.3,028.1,000.0,037.7,031.0,12.3,0000.0,0008.02,0002.77,0002.24
2023-10-10 15:36:00,SystemResetWarning,0824.1,4.99,000.00,029.3,027.1,000.0,037.6,031.0,12.1,0000.0,0007.62,0002.66,0002.21
2023-10-10 15:37:00,SystemResetWarning,0824.1,5.00,000.00,029.2,025.5,000.0,037.6,030.7,12.7,0000.0,0006.87,0002.61,0002.21
2023-10-10 15:38:00,SystemResetWarning,0824.1,5.01,000.00,029.1,025.3,000.0,037.5,030.7,12.5,0000.0,0008.26,0002.59,0002.21
2023-10-10 15:39:00,SystemResetWarning,0824.0,5.01,000.00,029.1,025.6,000.0,037.5,030.5,12.3,0000.0,0008.54,0002.56,0002.19
2023-10-10 15:40:00,SystemResetWarning,0824.0,5.00,000.00,029.0,025.9,000.0,037.5,030.5,11.4,0000.0,0008.64,0002.50,0002.17
2023-10-10 15:41:00,SystemResetWarning,0824.1,5.00,000.00,029.0,026.2,000.0,037.5,030.5,11.4,0000.0,0008.37,0002.49,0002.16
2023-10-10 15:42:00,SystemResetWarning,0824.1,4.99,000.00,028.9,026.5,000.0,037.5,030.5,11.7,0000.0,0007.54,0002.51,0002.15
2023-10-10 15:43:00,SystemResetWarning,0824.2,5.00,000.00,028.9,026.8,000.0,037.5,030.5,11.5,0000.0,0007.37,0002.55,0002.15
2023-10-10 15:44:00,SystemResetWarning,0824.2,4.99,000.00,028.9,027.0,000.0,037.5,030.6,11.8,0000.0,0007.31,0002.53,0002.13
2023-10-10 15:45:00,SystemResetWarning,0824.1,5.00,000.00,029.0,027.2,000.0,037.5,030.6,12.0,0000.0,0007.34,0002.57,0002.14
2023-10-10 15:46:00,SystemResetWarning,0824.1,5.00,000.00,029.0,027.4,000.0,037.5,030.7,11.3,0000.0,0007.35,0002.62,0002.14
2023-10-10 15:47:00,SystemResetWarning,0824.1,5.00,000.00,029.0,027.5,000.0,037.5,030.7,10.6,0000.0,0007.79,0002.65,0002.14
2023-10-10 15:48:00,SystemResetWarning,0824.1,5.01,000.00,029.1,027.7,000.0,037.5,030.8,10.8,0000.0,0007.97,0002.69,0002.14
2023-10-10 15:49:00,SystemResetWarning,0824.1,5.01,000.00,029.1,027.8,000.0,037.6,030.8,10.6,0000.0,0005.99,0002.79,0002.18
2023-10-10 15:50:00,SystemResetWarning,0824.1,5.00,000.00,029.1,027.8,000.0,037.6,030.8,10.9,0000.0,0005.61,0002.86,0002.23
2023-10-10 15:51:00,SystemResetWarning,0824.0,4.98,000.00,029.1,026.7,000.0,037.5,030.8,10.8,0000.0,0005.35,0002.91,0002.27
2023-10-10 15:52:00,SystemResetWarning,0824.0,5.00,000.00,029.0,025.1,000.0,037.4,030.6,10.3,0000.0,0005.80,0002.99,0002.31
2023-10-10 15:53:00,SystemResetWarning,0824.0,5.01,000.00,029.0,025.0,000.0,037.4,030.5,11.3,0000.0,0006.42,0003.07,0002.36
2023-10-10 15:54:00,SystemResetWarning,0823.9,4.99,000.00,028.9,025.3,000.0,037.4,030.3,11.4,0000.0,0007.13,0003.12,0002.41
2023-10-10 15:55:00,SystemResetWarning,0824.0,4.99,000.00,028.8,025.7,000.0,037.4,030.3,11.2,0000.0,0007.25,0003.15,0002.44
2023-10-10 15:56:00,SystemResetWarning,0824.0,5.01,000.00,028.8,026.0,000.0,037.4,030.3,11.1,0000.0,0007.37,0003.18,0002.47
2023-10-10 15:57:00,SystemResetWarning,0824.0,5.01,000.00,028.8,026.4,000.0,037.4,030.4,10.7,0000.0,0007.43,0003.16,0002.48
2023-10-10 15:58:00,SystemResetWarning,0824.0,4.99,000.00,028.8,026.6,000.0,037.4,030.4,11.2,0000.0,0007.75,0003.21,0002.52
2023-10-10 15:59:00,SystemResetWarning,0824.0,4.99,000.00,028.8,026.9,000.0,037.4,030.5,10.5,0000.0,0007.97,0003.22,0002.52
